Weather in Haus im Ennstal

Austria     47°24′39″N   13°45′53″E
temp.,
°C
wind,
m/s
gust,
m/s
humid.,
%
clouds,
%
prec.,
mm/h
press.,
hPa
HPBL,
m
17 june, thu
thu1723:00+12sse228119 0.0 101821
02:00+11s22865 0.0 101920
05:00+10sse229026 0.0 101820
08:00+17sse22685 0.0 1017292
11:00+23ese11435 0.0 10161333
14:00+25n21309 0.0 10142873
17:00+23ese2247100 0.1 1014791
20:00+17ese237167 0.1 101647
18 june, fri
fri1823:00+13sse328696 0.0 101829
02:00+12sse329198 0.0 101835
05:00+11s22924 0.0 101724
08:00+17sse236914 0.0 1017348
11:00+21ese115391 0.0 1016917
14:00+24ene3242100 0.0 10142109
17:00+19ssw346595 0.1 1015204
20:00+17ssw227660 0.1 101628
19 june, sat
sat1923:00+13sse2286100 0.0 101814
02:00+12s2187100 0.0 101812
05:00+12wsw118592 0.0 101910
08:00+17wnw127383 0.0 1019255
11:00+20n22695 1.3 1018814
14:00+22nnw225794 2.4 10171375
17:00+23nw214495 0.2 10151790
20:00+19n22715 0.2 101616
20 june, sun
sun2023:00+14sse21855 0.0 101711
02:00+13sse228674 0.0 101715
05:00+12s228786 0.0 101618
08:00+19sse236778 0.0 1013237
11:00+25se233979 0.0 10111220
14:00+28se233069 0.0 10082003
17:00+28se333571 0.0 10071985
20:00+22sse326589 0.0 100831
21 june, mon
mon2123:00+14nw2399100 4.4 1014169
02:00+14ssw119758 4.9 1013101
05:00+12s22965 0.4 101218
08:00+17ese11834 0.4 1011210
11:00+24e22515 0.0 10091059
14:00+25e224497 0.0 10071286
17:00+23se235961 0.1 1007397
20:00+19se33730 0.1 100866